Briefing drone pour Saint-jean-bonnefonds

Rechercher une autre localisation

Conditions de vol :


Nous sommes le : Mardi 27 juillet 2021
Il est 01:21 UTC (03:21 LT)

Lever de soleil : 03:54 UTC (05:54 LT)
Coucher de soleil : 19:42 UTC (21:42 LT)

Météo

L'essentiel des conditions de vol

VIGILANCE MÉTÉO FRANCE - Loire (42)
Pas de vigilances particulieres
CARTE TEMSI
CARTES DES FRONTS
METAR de LFMH
LFMH 270100Z AUTO 00000KT CAVOK 13/12 Q1017

Date d'émission: 27/07/2021
Heure d'émission: 01:00 UTC
Vent: Calme
Visibilité horizontale: > 10 km
Plafond : Plafond et visibilité OK (CAVOK)
Température: 13 °C
Point de rosée: 12 °C
Humidité: 94%
Pression (QNH): 1017 hPa
TAF de LFMH
LFMH 161901Z 1619/1712 CNL

Conditions prévues :

Heure d'émission : Bulletin éffectué le 16 à 19:00 UTC
Prévision : Valide du 16 a 19:00 UTC au 17 a 12:00 UTC
Nuages : à 0ft (0 m)
WEBCAM POUR SAINT-JEAN-BONNEFONDS

Réglementation

Voler en sécurité

CARTES AERONAUTIQUE 1/500.000
CARTES VAC (LFMH)
SUP AIP




Chargement des AIP...
NOTAM (SAINT-JEAN-BONNEFONDS + Terrain à proximité / FIR )




Chargement des NOTAMS...
CONTACT PREFECTURE 42


Avertissement : Les données mises à disposition sont indicatives. Oxygène Drone ne pourra être tenu responsable de dégâts causés aux biens et aux personnes.